User: anonymous   Login
Location: Unspecified
(0.0000°N, 0.0000°E)
Time: 00:55:38
(UTC+00:00)
Language:

STARLINK-32856 - Orbit

View from above orbital plane
View from above orbital plane
View from above satellite
View from above satellite

Ground track
Ground track

The orbit is defined by the following mean orbital elements,

1 62819U          26145.46739454 +.00000000 +00000-0 +33896-3 0 00001
2 62819  53.1596 312.9535 0001511  97.8371 262.2802 15.30201222    08
Epoch (UTC): 25 May 2026 11:13:02
Eccentricity: 0.0001511
inclination: 53.1596°
perigee height: 474 km
apogee height: 476 km
right ascension of ascending node: 312.9535°
argument of perigee: 97.8371°
revolutions per day: 15.30201222
mean anomaly at epoch: 262.2802°

The dashed part of the orbit path shows where the satellite is in the earth's shadow,  

DLR